RH
40 43 47 45 44 35 30 22 22 20 17 16 15 14 15 20 15 20 34 38 40 30 45 61 68 75 51 58 45 51 48 71 87 57 50 44 46 57 63 92 98 82 95 97 95 86 91
40 41 43 45 42 35 30 26 22 23 19 16 15 14 18 19 23 32 44 48 48 30 35 44 54 77 59 53 61 60 54 73 64 24 23 53 92 98 91 85 97 97 91 92 90 96 84
40 41 43 44 43 39 26 25 24 25 20 16 16 15 22 21 29 36 46 45 51 36 35 45 65 79 60 52 64 60 60 56 30 37 39 99 89 84 96 95 91 90 72 60 45 83 64
32 30 31 31 40 41 37 28 23 26 20 16 16 16 24 24 30 38 42 49 51 46 45 69 76 83 74 56 57 90 38 43 63 73 90 95 94 96 89 98 95 95 92 75 40 32 54
30 31 25 24 24 34 39 23 21 27 20 17 17 16 23 26 33 38 50 54 52 44 60 73 91 96 79 56 54 74 35 67 67 100 99 97 100 97 97 92 86 84 66 54 28 39 45
26 26 24 24 22 26 23 20 20 25 20 18 18 19 24 31 30 41 57 53 55 63 68 84 98 50 35 52 55 48 35 96 100 95 88 76 98 89 88 81 83 58 53 30 28 25 12
23 20 19 21 21 20 21 19 21 23 20 19 18 22 26 31 27 47 57 61 70 69 82 85 48 28 25 43 41 41 50 94 92 92 95 98 96 88 83 81 63 42 22 24 22 21 21
24 20 12 12 20 18 15 16 18 23 20 19 17 22 32 33 34 52 64 78 79 74 65 39 28 30 39 36 37 41 63 96 100 98 100 92 95 93 85 76 66 35 39 78 74 32 19
15 11 11 4 11 16 14 14 18 22 21 19 18 22 36 29 43 60 70 71 75 32 33 32 43 43 50 48 35 46 86 90 100 99 84 94 72 86 78 68 74 45 81 91 73 66 31
8 5 6 5 4 5 15 15 18 20 22 18 18 25 34 28 54 63 69 36 26 31 34 37 36 30 28 26 28 35 71 88 99 95 78 76 33 78 77 64 66 31 68 61 80 88 87
2 4 3 3 4 2 7 17 20 20 23 18 19 26 28 27 67 54 32 26 27 33 30 28 28 27 24 24 26 30 50 96 96 94 89 71 67 45 72 62 50 68 90 83 58 47 43
1 2 2 3 3 2 2 16 20 24 24 17 19 26 16 51 51 24 21 21 24 22 20 21 22 19 18 19 19 20 30 38 78 77 72 41 34 34 39 43 78 61 42 54 45 28 22
1 1 2 2 2 2 2 15 21 26 22 17 19 25 14 48 26 17 17 16 16 18 19 23 24 25 20 17 13 11 11 14 20 26 23 26 50 42 48 54 36 33 23 21 22 19 17
1 1 1 1 1 2 4 16 22 27 21 16 21 15 36 32 18 14 12 12 21 27 26 27 26 27 29 24 25 24 24 26 27 26 31 32 35 34 32 29 22 21 22 22 22 24 24
1 1 1 1 1 1 4 18 24 26 21 16 23 15 40 14 14 11 11 18 25 22 20 18 15 14 13 13 12 13 16 15 20 29 30 28 27 28 25 23 21 20 21 23 21 22 23
1 1 1 1 1 2 7 21 26 25 18 16 25 32 27 19 12 14 19 22 23 17 16 13 12 12 12 12 12 11 11 10 8 8 8 9 10 12 15 14 15 18 22 25 25 19 17
1 1 8 10 1 7 25 25 27 22 19 17 22 26 16 13 17 18 20 21 18 14 12 12 13 13 13 14 15 16 16 14 14 11 9 12 13 17 23 24 26 26 29 23 20 21 19
1 1 97 94 8 30 37 31 26 18 19 18 17 17 11 13 19 19 19 16 14 11 12 14 13 10 7 7 8 14 17 14 14 12 12 14 18 20 24 29 29 28 19 18 22 18 16
1 24 99 32 42 62 43 31 21 20 19 28 12 25 10 16 18 18 14 12 15 12 15 10 8 6 7 23 17 11 10 9 11 15 16 20 27 29 25 27 24 18 18 18 17 17 18
6 98 88 42 61 87 47 31 21 26 20 30 11 25 10 16 18 18 12 12 19 16 13 10 8 7 14 38 38 30 17 13 14 14 15 24 29 27 28 28 24 17 19 20 18 18 18
100 100 65 49 100 82 49 42 34 30 23 25 12 21 10 14 16 14 11 14 19 15 14 10 9 8 11 32 38 31 24 22 18 13 20 21 26 27 27 26 23 19 20 21 20 21 20
100 78 86 100 100 64 63 60 45 28 31 19 18 16 13 17 18 13 10 16 22 15 13 10 10 11 8 13 31 32 25 24 19 15 21 23 27 26 24 24 22 21 24 22 23 22 21
100 100 98 100 85 68 71 55 46 23 38 13 19 14 15 17 16 10 10 14 16 13 12 11 10 12 8 6 9 25 25 22 16 20 20 22 26 26 22 24 22 18 22 23 22 21 20
100 100 100 99 72 68 64 51 32 32 36 11 18 14 16 17 15 10 8 10 13 12 12 12 10 10 12 7 6 6 20 20 20 20 20 20 22 22 23 24 18 18 21 23 23 23 22
100 100 98 70 68 61 52 41 33 48 30 13 17 13 14 20 16 11 9 9 10 11 13 12 11 10 10 11 7 6 6 11 21 20 16 16 18 19 20 21 20 21 25 28 27 25 30
100 95 74 62 55 54 50 43 52 50 23 15 23 12 15 19 17 17 10 9 9 10 13 13 12 10 9 10 10 8 6 5 6 10 20 25 24 22 20 18 15 17 20 24 24 20 29
93 78 71 64 68 69 60 46 55 48 20 17 31 14 14 19 21 17 13 11 11 11 13 13 13 11 10 10 10 9 9 8 6 5 8 10 11 12 15 15 13 25 28 29 29 28 25
99 95 90 92 95 100 60 48 54 44 20 16 15 12 13 18 21 18 16 13 14 15 14 14 13 12 11 9 10 10 9 10 9 8 8 9 9 12 15 15 19 25 27 31 32 37 34
80 67 70 88 100 87 51 58 56 39 19 16 15 20 12 17 20 21 20 17 18 16 15 15 14 12 11 10 10 10 10 11 10 9 9 9 11 10 11 12 15 16 17 20 24 28 32
Wind_Speed
50 48 44 43 42 42 41 38 40 41 39 39 37 33 34 27 23 26 29 21 21 18 13 13 14 14 15 10 10 10 13 15 11 14 18 17 18 20 24 24 22 19 17 14 14 5 12
52 50 47 44 42 44 41 39 40 40 39 39 35 32 32 27 24 25 23 24 23 18 16 15 15 11 9 8 10 10 13 8 5 12 19 25 29 31 29 25 19 16 6 6 7 7 10
54 52 49 47 43 42 41 40 41 40 40 38 32 32 31 24 24 25 23 24 18 17 15 14 12 8 8 8 11 11 9 9 14 16 27 34 34 28 28 24 19 16 10 6 3 4 4
54 50 47 46 45 42 43 42 41 39 39 36 31 33 29 21 23 22 26 21 18 16 12 9 9 9 9 11 13 16 13 19 20 30 32 25 24 23 20 20 16 11 6 7 7 8 11
56 53 48 46 45 42 42 41 41 39 36 33 31 31 24 20 20 24 23 17 17 14 12 9 10 10 11 12 14 15 19 19 22 31 29 24 20 17 13 11 7 5 8 6 8 9 13
60 56 52 49 47 41 41 41 41 39 32 30 30 27 20 18 20 23 18 15 13 12 11 11 12 11 15 15 10 19 23 24 24 29 31 26 23 20 11 13 7 8 5 8 7 12 13
66 62 57 51 50 45 42 40 39 38 32 26 27 22 19 17 20 18 14 12 12 12 12 11 13 14 17 19 18 19 25 31 27 24 19 11 21 22 12 7 7 5 13 14 13 12 13
73 67 58 52 50 45 43 40 38 36 33 25 23 19 17 17 18 13 12 13 14 15 16 15 14 18 17 20 22 22 27 26 22 20 19 16 11 15 13 11 11 16 18 12 13 13 13
73 65 60 52 51 46 44 40 38 34 32 22 21 17 15 16 15 14 14 15 17 16 15 16 17 17 17 15 17 23 28 26 28 25 20 12 10 12 12 15 13 22 18 13 10 7 9
76 64 59 55 52 49 46 41 39 35 30 21 22 16 16 16 16 19 18 16 14 15 17 17 18 18 16 15 16 19 29 31 29 26 20 15 12 19 17 18 19 19 20 19 14 13 11
73 69 62 59 55 52 48 43 40 37 29 20 22 16 17 16 16 17 14 16 17 19 20 20 20 18 18 18 16 20 24 33 30 26 23 21 22 18 20 20 23 18 17 18 22 22 16
74 71 65 61 59 56 52 46 42 37 28 21 21 17 14 17 18 18 18 21 22 21 16 19 19 18 18 18 19 18 19 21 31 25 28 21 17 14 19 20 17 18 18 17 17 18 16
75 69 67 66 64 61 55 50 44 38 28 24 21 18 20 20 20 22 25 25 24 22 22 20 18 19 18 16 16 16 17 19 20 22 19 17 15 14 17 21 18 18 16 15 16 17 15
79 74 68 69 66 64 57 53 46 39 29 28 24 20 26 25 26 27 27 27 26 21 20 19 18 16 16 14 14 13 13 13 14 15 16 17 19 18 16 17 18 18 17 17 17 17 16
79 72 73 71 70 67 61 56 48 40 32 32 26 27 30 31 32 32 31 29 26 21 20 19 18 15 13 12 11 12 12 12 13 14 15 15 15 14 15 18 19 18 18 17 16 13 11
79 73 73 73 72 70 64 59 51 41 37 34 29 34 35 37 38 35 32 29 25 21 20 19 16 13 12 11 10 10 11 11 12 14 15 14 16 15 15 17 16 16 12 11 8 7 5
78 73 68 67 78 74 69 61 53 45 42 37 34 39 42 44 41 36 32 28 25 22 20 17 15 13 14 15 16 16 15 14 15 16 16 17 17 17 15 14 13 11 10 9 7 5 5
75 75 68 81 83 78 72 63 55 49 45 41 38 43 48 48 43 37 34 30 26 23 19 15 13 13 15 17 17 19 20 18 16 16 18 18 17 17 17 15 14 11 10 9 8 9 9
84 84 81 82 84 80 72 65 57 51 46 43 42 47 51 50 43 39 36 33 27 24 20 13 9 8 10 10 13 14 16 16 15 15 16 16 16 17 16 15 14 12 12 11 11 11 11
92 92 87 86 84 77 71 65 59 53 50 46 49 53 55 51 44 41 39 35 29 24 19 11 4 3 6 8 11 13 16 16 16 17 17 17 16 16 17 17 18 15 16 16 15 15 17
78 78 84 89 81 76 69 63 60 54 53 48 52 58 55 49 45 43 42 37 31 22 17 10 3 1 3 6 9 13 16 16 17 18 17 17 17 18 20 21 20 20 20 20 19 21 23
75 88 91 81 77 72 66 61 58 56 55 49 56 59 56 50 46 44 44 40 35 25 19 11 5 2 2 4 7 10 12 14 17 18 18 18 19 21 22 22 23 24 23 22 25 26 28
81 91 82 73 72 67 60 59 56 56 54 51 58 59 57 51 48 47 44 39 33 27 20 14 8 5 5 4 4 7 9 12 15 18 19 20 21 23 25 26 28 30 23 27 30 31 34
78 77 75 71 64 60 58 54 53 54 50 52 57 59 56 51 49 46 44 40 34 27 22 18 12 9 8 7 7 6 8 10 14 17 19 20 22 25 28 30 34 28 28 32 36 37 39
75 71 65 62 58 55 52 50 49 47 47 53 55 57 57 52 49 47 45 40 36 29 25 21 16 14 12 10 10 9 8 10 13 15 17 20 23 26 30 31 34 34 34 37 40 42 44
64 62 58 54 53 50 48 45 43 43 46 51 53 58 57 53 49 47 44 41 36 31 28 24 20 18 17 15 14 13 13 11 12 13 17 21 24 26 28 32 34 34 37 39 42 45 44
63 58 54 51 49 45 43 41 41 42 44 49 49 55 57 52 49 47 44 40 34 32 29 27 24 22 20 19 18 17 17 17 17 17 17 20 23 25 28 32 34 35 38 39 42 45 47
58 52 47 46 42 40 38 40 41 40 41 47 49 53 55 52 49 46 44 40 36 34 31 30 28 26 25 24 23 23 23 22 22 21 22 24 26 28 31 34 39 39 41 43 46 48 50
50 44 41 39 39 40 39 38 36 36 38 43 45 47 53 51 49 46 43 41 38 38 36 34 33 31 29 28 29 29 28 28 29 30 30 30 32 35 36 37 40 43 45 47 47 48 48
Wind_Direction
263 264 266 269 275 279 278 283 286 292 297 304 316 323 319 301 300 296 297 289 291 282 267 263 282 279 264 279 215 218 199 219 207 212 197 185 169 178 181 183 187 201 215 217 230 273 97
260 262 264 267 270 274 274 279 284 288 293 301 313 320 314 296 299 298 298 291 284 270 266 269 278 276 274 248 205 211 211 222 196 169 159 153 152 154 165 175 175 188 176 217 226 110 85
261 262 264 264 264 267 271 277 281 285 290 298 310 317 311 288 299 299 294 291 268 263 264 269 252 257 253 203 204 203 205 176 144 161 159 154 163 163 161 154 154 158 148 149 208 101 160
259 261 261 261 261 261 267 275 275 282 287 297 309 316 307 288 302 300 299 275 254 268 264 255 231 215 193 192 197 201 186 148 146 152 163 165 165 156 169 179 174 178 191 239 229 186 192
257 259 259 260 259 259 264 269 272 278 284 294 308 313 299 295 305 301 301 262 255 260 249 236 212 227 183 191 193 162 165 150 162 156 171 169 157 158 177 161 149 184 217 224 224 192 195
256 255 256 257 259 258 259 267 269 273 279 292 304 308 291 297 298 297 278 257 246 245 231 222 220 211 187 185 184 183 167 157 160 174 176 180 171 183 181 192 177 200 247 221 205 180 174
255 256 252 252 255 256 257 263 265 270 275 288 302 298 286 285 291 292 260 232 240 229 215 220 226 208 192 187 181 195 173 168 172 180 166 148 180 178 168 173 202 244 180 193 190 181 180
253 253 249 247 247 251 252 256 260 266 273 284 297 285 288 276 279 264 226 242 244 233 233 222 213 199 189 188 179 191 181 180 157 167 151 172 176 187 162 181 206 179 183 194 214 216 214
252 247 246 243 243 241 245 248 254 259 267 278 285 271 271 270 262 238 240 247 245 236 217 196 183 183 181 179 186 185 186 180 174 185 188 161 205 202 227 207 217 197 197 202 229 261 227
246 242 239 241 239 238 239 239 247 254 260 271 271 260 261 262 247 239 245 237 215 198 187 175 162 160 163 166 177 176 191 189 187 191 195 199 221 216 225 229 227 208 216 219 223 212 242
240 238 237 234 236 235 236 233 240 247 254 256 257 252 259 237 230 225 211 186 172 169 163 163 163 159 159 164 167 172 186 197 199 206 214 220 237 246 224 217 226 220 225 238 239 236 237
237 233 232 233 232 232 230 229 233 239 245 242 244 245 248 217 208 200 180 169 168 168 160 163 157 160 166 171 171 174 185 197 206 215 219 232 233 229 212 208 219 240 248 241 233 238 249
236 230 226 227 228 228 223 225 227 232 233 232 231 232 202 204 196 182 175 172 166 159 157 158 158 162 159 161 168 181 186 196 202 212 219 214 202 212 219 228 242 244 241 242 247 256 276
231 227 225 222 221 221 216 218 221 226 223 223 221 215 195 195 185 178 174 168 165 164 164 163 163 164 161 163 162 166 171 182 192 200 205 213 223 230 223 227 232 239 247 254 263 270 277
226 218 219 218 216 215 210 212 215 216 218 217 213 197 196 183 178 173 173 172 172 169 167 167 166 166 171 172 180 180 184 198 210 217 223 223 228 230 230 232 239 241 248 252 260 267 277
222 212 210 211 209 206 204 206 208 210 210 208 205 189 192 179 176 174 178 177 175 171 172 172 171 178 181 194 207 210 212 215 223 229 235 232 229 226 228 231 236 238 233 236 250 266 268
211 207 202 204 201 198 199 200 202 200 202 202 199 190 187 179 178 178 179 179 177 176 177 182 191 200 212 220 225 227 230 231 230 231 231 228 224 220 220 219 218 225 229 233 236 247 241
196 195 188 198 192 194 193 193 196 195 198 199 195 192 185 180 180 178 180 178 176 181 184 193 204 222 230 233 235 237 237 237 228 228 230 226 223 220 211 211 214 217 224 220 236 258 266
179 182 185 188 191 191 190 190 190 194 195 196 189 190 185 183 179 179 182 179 182 185 180 185 209 232 233 227 217 219 224 226 223 220 217 220 216 214 217 213 210 213 220 229 248 262 272
172 178 188 187 191 191 188 186 185 189 191 191 188 191 185 183 179 181 183 181 180 181 184 192 210 246 234 229 226 226 226 225 227 216 219 221 216 219 215 213 219 219 230 241 256 271 278
167 180 185 184 189 188 186 184 183 184 190 189 188 191 186 183 182 183 185 183 185 188 193 197 192 285 245 242 246 242 236 229 219 215 214 219 219 221 221 226 231 234 242 252 263 274 281
160 177 182 182 186 184 184 182 181 184 189 187 189 190 187 184 183 187 187 187 194 196 198 205 214 312 312 261 250 247 242 238 229 217 217 224 224 228 231 236 241 242 249 258 267 274 279
165 178 174 177 182 182 180 182 181 184 187 187 188 190 188 185 187 190 189 191 197 199 202 208 222 271 303 309 296 261 245 235 223 221 228 235 236 239 243 247 250 251 257 264 271 277 280
168 170 172 176 179 179 179 180 183 185 186 188 189 190 190 186 189 192 194 197 201 203 206 215 229 257 281 299 306 298 264 249 244 244 246 250 250 251 255 258 261 268 265 270 276 280 283
167 170 165 171 174 175 176 181 184 185 187 189 188 191 192 190 191 195 197 201 205 206 213 220 235 252 272 290 301 303 294 268 257 256 256 257 259 261 262 265 271 272 273 271 273 276 282
165 156 162 167 170 173 176 181 182 185 189 187 189 193 193 192 193 199 203 206 208 211 218 225 236 251 266 278 291 299 299 294 277 269 261 261 264 266 272 274 278 278 277 277 278 280 280
151 154 162 165 168 170 177 179 181 186 188 188 190 194 194 195 197 201 206 210 213 218 223 231 241 251 263 273 282 288 294 295 292 284 277 275 276 276 279 281 285 284 285 284 284 285 288
152 157 162 168 170 173 178 180 182 184 189 190 192 194 196 199 202 204 208 214 216 223 230 236 243 253 264 273 278 284 285 290 294 290 285 280 280 281 281 285 286 288 286 284 286 287 289
153 158 162 170 169 174 177 178 179 186 191 191 193 195 198 202 206 207 211 216 221 226 232 239 244 254 264 271 276 277 281 285 287 287 286 284 284 284 285 286 285 285 285 287 289 289 291